Regional Weather Roundup
Issued by NWS

Home | Current Version | Previous Version | Graphics & Text | Print | Product List | Glossary On
Versions: 1 2 3 4 5 6 7 8 9 10 11 12 13 14 15 16 17 18 19 20 21 22 23 24 25 26 27 28
000
ASUS45 KCYS 262310
RWRWY

WYOMING REGIONAL WEATHER ROUNDUP
NATIONAL WEATHER SERVICE CHEYENNE WY
500 PM MDT FRI MAY 26 2017

NOTE:  "FAIR" INDICATES FEW OR NO CLOUDS BELOW 12,000 FEET
WITH NO SIGNIFICANT WEATHER AND/OR OBSTRUCTIONS TO VISIBILITY.

WYZ001-270000-
YELLOWSTONE NATIONAL PARK

CITY           SKY/WX    TMP DP  RH WIND       PRES   REMARKS
LK YELLOWSTONE   N/A     38  36  92 VRB3      30.03R
W YELLOWSTONE  NOT AVBL

$$
WYZ002>013-054>058-071-098>099-270000-
NORTHERN WYOMING

CITY           SKY/WX    TMP DP  RH WIND       PRES   REMARKS
JACKSON        PTSUNNY   46  39  76 NE6       29.97R
CODY           LGT RAIN  46  40  79 NW6       30.00S
GREYBULL       LGT RAIN  52  42  69 SW12      29.93R
WORLAND        CLOUDY    50  43  77 W6        29.95R
SHERIDAN       CLOUDY    52  43  71 W8        29.96R
BUFFALO        LGT RAIN  49  40  71 W6        29.98R
GILLETTE       CLOUDY    56  37  49 S7        29.94R
HULETT         CLOUDY    57  34  41 CALM      29.93S
NEWCASTLE      DRIZZLE   50  43  76 SW7       29.97R

$$
WYZ014>020-022>026-101>103-270000-
CENTRAL WYOMING

CITY           SKY/WX    TMP DP  RH WIND       PRES   REMARKS
BIG PINEY      FAIR      53  32  44 NW24G32   29.94R
PINEDALE       FAIR      48  34  57 N25G32    29.95R
DUBOIS         DRIZZLE   39  36  87 SE8       29.97R WCI  34
LANDER         LGT RAIN  46  39  76 NW7       29.93R
RIVERTON       CLOUDY    47  42  83 N8        29.94S
CASPER         LGT RAIN  46  43  89 E14       29.93R
DOUGLAS        LGT RAIN  44  41  89 NE28      29.86F FOG

$$
WYZ021-027>030-104>119-270000-
SOUTHERN WYOMING

CITY           SKY/WX    TMP DP  RH WIND       PRES   REMARKS
EVANSTON       FAIR      56  28  34 SW29G39   29.95S
KEMMERER         N/A     52  34  50 NW23G32   29.96R
FORT BRIDGER   FAIR      58  27  30 W17G31    29.97S
ROCK SPRINGS   CLOUDY    53  29  39 W22G28    29.91F
DIXON            N/A     53  39  60 N26G38    29.92R
RAWLINS        CLOUDY    48  38  68 N12       29.95R
SARATOGA       FAIR      48  41  76 NW22G30   29.94R
LARAMIE        PTSUNNY   51  44  77 MISG      29.94R
CHEYENNE       PTSUNNY   60  47  61 SE9       29.87F
TORRINGTON     FAIR      56  49  77 E13       29.85F
PINE BLUFFS    CLOUDY    63  46  55 E12       29.87F

$$




USA.gov is the U.S. government's official web portal to all federal, state and local government web resources and services.